Location: Csohesd
(46.2500°N, 22.6167°E)
Time: 03:22:24
(UTC+00:00)

Cosmos 2263 Rocket - Pass Details

Date: 21 October 2021
Orbit: 825 x 847 km, 71.0° (Epoch: 30 November)

Event Time Altitude Azimuth Distance (km) Brightness Sun altitude
Rises 17:40:22 0° 324° (NW) 3,372 6.0 -22.8°
Reaches altitude 10° 17:43:07 10° 313° (NW) 2,434 5.3 -23.2°
Maximum altitude 17:47:42 27° 257° (WSW) 1,537 4.2 -24.0°
Drops below altitude 10° 17:52:17 10° 201° (SSW) 2,421 4.7 -24.8°
Sets 17:55:02 0° 189° (S) 3,352 5.3 -25.3°
